TimeCST,TemperatureF,Dew PointF,Humidity,Sea Level PressureIn,VisibilityMPH,Wind Direction,Wind SpeedMPH,Gust SpeedMPH,PrecipitationIn,Events,Conditions,WindDirDegrees,DateUTC
12:53 AM,37.9,36.0,93,30.09,10.0,Variable,6.9,-,N/A,,Overcast,0,2013-01-15 06:53:00
1:53 AM,37.9,37.0,97,30.09,10.0,North,5.8,-,N/A,,Overcast,10,2013-01-15 07:53:00
2:16 AM,37.4,37.4,100,30.08,2.5,NNE,6.9,-,0.03,Rain,Rain,20,2013-01-15 08:16:00
2:27 AM,37.4,37.4,100,30.07,8.0,NNE,5.8,-,0.03,Rain,Light Rain,30,2013-01-15 08:27:00
2:53 AM,37.9,37.0,97,30.07,8.0,NNE,3.5,-,0.04,Rain,Light Rain,30,2013-01-15 08:53:00
3:09 AM,39.2,37.4,93,30.07,10.0,NNE,4.6,-,0.00,,Overcast,30,2013-01-15 09:09:00
3:53 AM,39.0,37.9,96,30.06,10.0,North,6.9,-,0.00,,Overcast,10,2013-01-15 09:53:00
4:53 AM,39.0,37.9,96,30.06,9.0,North,6.9,-,0.00,,Overcast,360,2013-01-15 10:53:00
5:53 AM,39.0,37.9,96,30.05,10.0,NNE,6.9,-,0.01,,Overcast,20,2013-01-15 11:53:00
6:09 AM,39.2,37.4,93,30.05,9.0,NNE,6.9,-,N/A,,Overcast,20,2013-01-15 12:09:00
6:53 AM,39.0,37.9,96,30.05,4.0,Variable,4.6,-,0.02,Rain,Light Rain,0,2013-01-15 12:53:00
7:53 AM,39.0,37.9,96,30.06,6.0,Calm,Calm,-,0.00,Rain,Light Rain,0,2013-01-15 13:53:00
8:09 AM,39.2,37.4,93,30.05,2.5,NNE,5.8,-,0.08,Rain-Thunderstorm,Heavy Thunderstorms and Rain,30,2013-01-15 14:09:00
8:19 AM,39.2,37.4,93,30.06,1.5,Variable,4.6,-,0.21,Rain-Thunderstorm,Heavy Thunderstorms and Rain,0,2013-01-15 14:19:00
8:24 AM,39.2,37.4,93,30.07,2.0,NNW,6.9,-,0.25,Rain,Heavy Rain,340,2013-01-15 14:24:00
8:27 AM,39.2,37.4,93,30.08,1.8,NNW,5.8,-,0.30,Rain,Heavy Rain,340,2013-01-15 14:27:00
8:51 AM,39.2,37.4,93,30.06,3.0,NE,5.8,-,0.48,Rain,Light Rain,40,2013-01-15 14:51:00
8:53 AM,39.0,37.9,96,30.06,5.0,Variable,3.5,-,0.48,Rain,Light Rain,0,2013-01-15 14:53:00
9:16 AM,39.2,37.4,93,30.07,4.0,NE,4.6,-,0.02,Rain,Rain,40,2013-01-15 15:16:00
9:25 AM,39.2,37.4,93,30.08,2.5,North,3.5,-,0.04,Rain,Light Rain,10,2013-01-15 15:25:00
9:34 AM,39.2,37.4,93,30.07,5.0,NE,6.9,-,0.04,Rain,Light Rain,40,2013-01-15 15:34:00
9:53 AM,39.0,37.9,96,30.07,4.0,NNE,4.6,-,0.05,Rain,Light Rain,30,2013-01-15 15:53:00
10:08 AM,39.2,37.4,93,30.06,2.0,NE,4.6,-,0.00,,Overcast,50,2013-01-15 16:08:00
10:16 AM,39.2,39.2,100,30.07,1.5,Variable,3.5,-,0.00,,Overcast,0,2013-01-15 16:16:00
10:30 AM,39.2,37.4,93,30.05,2.0,ENE,4.6,-,0.01,Rain,Light Rain,60,2013-01-15 16:30:00
10:53 AM,39.0,39.0,100,30.06,1.8,North,6.9,-,0.01,,Overcast,360,2013-01-15 16:53:00
11:04 AM,39.2,39.2,100,30.05,2.0,North,6.9,-,N/A,,Overcast,10,2013-01-15 17:04:00
11:45 AM,39.2,39.2,100,30.02,1.5,Calm,Calm,-,N/A,,Overcast,0,2013-01-15 17:45:00
11:53 AM,39.9,39.0,97,30.03,1.2,NNE,4.6,-,N/A,,Overcast,30,2013-01-15 17:53:00
12:53 PM,41.0,39.9,96,30.01,0.8,North,6.9,-,N/A,,Overcast,350,2013-01-15 18:53:00
1:36 PM,41.0,39.2,93,30.00,1.0,North,5.8,-,N/A,,Overcast,360,2013-01-15 19:36:00
1:53 PM,41.0,41.0,100,30.00,1.8,North,5.8,-,N/A,,Overcast,350,2013-01-15 19:53:00
2:45 PM,41.0,39.2,93,29.99,2.0,North,10.4,-,N/A,,Overcast,360,2013-01-15 20:45:00
2:53 PM,41.0,41.0,100,29.99,2.5,NNE,5.8,-,N/A,,Overcast,20,2013-01-15 20:53:00
3:25 PM,41.0,39.2,93,30.00,1.5,NNW,10.4,-,N/A,,Overcast,340,2013-01-15 21:25:00
3:53 PM,41.0,41.0,100,30.00,2.0,North,6.9,-,N/A,,Overcast,10,2013-01-15 21:53:00
4:03 PM,41.0,39.2,93,30.00,1.8,North,8.1,-,N/A,,Overcast,10,2013-01-15 22:03:00
4:53 PM,39.9,39.0,97,30.00,2.5,NNE,5.8,-,N/A,,Overcast,30,2013-01-15 22:53:00
5:27 PM,39.2,39.2,100,29.99,3.0,NNE,4.6,-,N/A,,Overcast,20,2013-01-15 23:27:00
5:53 PM,39.9,39.0,97,30.01,4.0,North,6.9,-,N/A,,Overcast,350,2013-01-15 23:53:00
6:33 PM,39.2,39.2,100,30.00,2.5,North,4.6,-,N/A,,Overcast,360,2013-01-16 00:33:00
6:53 PM,39.9,39.0,97,30.01,3.0,North,6.9,-,N/A,,Overcast,360,2013-01-16 00:53:00
7:53 PM,39.0,39.0,100,30.02,7.0,North,6.9,-,N/A,,Overcast,350,2013-01-16 01:53:00
8:53 PM,39.0,39.0,100,30.02,3.0,NNW,5.8,-,N/A,,Overcast,340,2013-01-16 02:53:00
9:31 PM,39.2,37.4,93,30.02,10.0,North,8.1,-,0.01,,Overcast,350,2013-01-16 03:31:00
9:53 PM,39.0,37.0,93,30.02,10.0,NNW,9.2,-,0.01,,Overcast,330,2013-01-16 03:53:00
10:53 PM,37.9,36.0,93,30.03,10.0,NNW,9.2,-,N/A,,Overcast,330,2013-01-16 04:53:00